Date_and_time,latitude,longitude,wind_speed,RelWindDirFrom,WindDirFrom,air_pressure,air_temperature,relative_humidity,Temp,platform_speed_wrt_ground,air_pressure_at_mean_sea_level,platform_orientation
2018-06-09 23:40,50.9117316666667,-96.9825366666667,8.1,9.1,150,985.53,18.3,90,19.52,0.0,1011.54,157.3
2018-06-09 23:50,50.9117316666667,-96.982535,7.3,8.8,144,985.40,18.1,92,19.50,0.0,1011.42,157.3
2018-06-10 00:00,50.91172,-96.9825266666667,6.3,7.5,140,985.35,17.9,96,19.47,0.0,1011.37,167.1
2018-06-10 00:10,50.9117316666667,-96.9825333333333,5.8,7.4,134,985.32,18.0,95,19.43,0.0,1011.34,167.1
2018-06-10 00:20,50.911735,-96.9825233333333,7.0,8.8,125,985.33,18.0,93,19.40,0.0,1011.35,167.1
2018-06-10 00:30,50.9117316666667,-96.982525,8.2,9.7,123,985.26,18.0,93,19.36,0.0,1011.28,167.1
2018-06-10 00:40,50.9117316666667,-96.9825283333333,8.2,10.8,116,985.23,18.4,92,19.33,0.0,1011.23,167.1
2018-06-10 00:50,50.9117316666667,-96.9825266666667,9.1,11.2,122,985.16,18.3,90,19.30,0.0,1011.17,167.1
2018-06-10 01:00,50.9117366666667,-96.9825233333333,9.1,10.7,126,985.20,18.3,90,19.29,0.0,1011.20,47.9
2018-06-10 01:10,50.9117383333333,-96.9825183333333,8.9,10.6,128,985.22,18.2,91,19.27,0.0,1011.24,47.9
2018-06-10 01:20,50.9117383333333,-96.982515,9.0,10.4,128,985.21,18.2,92,19.26,0.0,1011.23,47.9
2018-06-10 01:30,50.9117583333333,-96.9824716666667,9.8,11.1,125,985.14,18.1,93,19.24,0.0,1011.17,47.9
2018-06-10 01:40,50.91174,-96.9825016666667,9.8,11.2,125,985.12,18.1,92,19.22,0.0,1011.16,47.9
2018-06-10 01:50,50.9117283333333,-96.982545,9.7,11.2,129,985.11,18.1,92,19.20,0.0,1011.16,47.9
2018-06-10 02:00,50.91173,-96.9825266666667,9.6,11.3,130,985.09,18.0,92,19.19,0.0,1011.13,360.0
2018-06-10 02:10,50.91173,-96.9825233333333,9.2,10.7,128,985.04,17.9,94,19.17,0.0,1011.09,360.0
2018-06-10 02:20,50.9117316666667,-96.982525,9.9,11.5,130,984.90,17.9,95,19.15,0.0,1010.95,360.0
2018-06-10 02:30,50.9117416666667,-96.982535,9.9,11.6,133,984.89,17.9,95,19.14,0.0,1010.92,360.0
2018-06-10 02:40,50.911725,-96.98252,8.4,9.6,132,984.90,17.9,96,19.13,0.0,1010.93,360.0
2018-06-10 02:50,50.9117416666667,-96.9825166666667,7.4,8.7,131,984.92,17.9,96,19.12,0.0,1010.95,360.0
2018-06-10 03:00,50.911745,-96.982525,7.3,8.5,127,984.92,17.8,96,19.11,0.0,1010.96,360.0
2018-06-10 03:10,50.9117083333333,-96.9825033333333,8.9,10.4,125,984.84,17.8,96,19.09,0.0,1010.88,360.0
2018-06-10 03:20,50.9117283333333,-96.982525,9.8,11.2,125,984.78,17.8,97,19.07,0.0,1010.82,360.0
2018-06-10 03:30,50.9117216666667,-96.9825283333333,9.7,11.5,131,984.75,17.9,97,19.06,0.0,1010.79,360.0
2018-06-10 03:40,50.9117233333333,-96.9825233333333,10.5,12.3,132,984.73,17.9,97,19.05,0.0,1010.77,360.0
2018-06-10 03:50,50.911725,-96.982525,10.3,12.1,133,984.67,17.9,97,19.05,0.0,1010.71,360.0
2018-06-10 04:00,50.9117266666667,-96.98253,10.1,11.8,136,984.64,17.9,96,19.05,0.0,1010.68,227.9
2018-06-10 04:10,50.91173,-96.9825316666667,10.1,11.8,139,984.65,17.9,96,19.05,0.0,1010.69,227.9
2018-06-10 04:20,50.91173,-96.9825283333333,7.3,9.6,156,984.76,17.7,99,19.04,0.0,1010.82,227.9
2018-06-10 04:30,50.911745,-96.98253,6.0,7.2,159,984.73,17.5,100,19.01,0.0,1010.79,227.9
2018-06-10 04:40,50.9117366666667,-96.9825116666667,6.0,7.4,150,984.61,17.4,100,18.97,0.0,1010.67,227.9
2018-06-10 04:50,50.911735,-96.9825233333333,6.3,7.8,149,984.56,17.4,100,18.95,0.0,1010.63,227.9
2018-06-10 05:00,50.91174,-96.9825266666667,6.7,8.3,148,984.55,17.4,100,18.93,0.0,1010.62,360.0
2018-06-10 05:10,50.9117416666667,-96.982525,6.8,8.2,149,984.52,17.4,100,18.91,0.0,1010.59,360.0
2018-06-10 05:20,50.9117416666667,-96.9825216666667,6.1,7.2,149,984.50,17.3,100,18.90,0.0,1010.57,360.0
2018-06-10 05:30,50.9117033333333,-96.9825066666667,5.9,7.2,150,984.50,17.3,100,18.88,0.0,1010.57,360.0
2018-06-10 05:40,50.9117733333333,-96.9825433333333,6.1,7.0,151,984.50,17.2,100,18.86,0.0,1010.57,360.0
2018-06-10 05:50,50.9117483333333,-96.9825466666667,6.5,8.2,150,984.50,17.2,100,18.83,0.0,1010.57,360.0
2018-06-10 06:00,50.911745,-96.98254,7.1,9.5,147,984.41,17.2,100,18.81,0.0,1010.48,270.0
2018-06-10 06:10,50.9117416666667,-96.9825383333333,8.6,10.6,147,984.33,17.3,100,18.79,0.0,1010.41,270.0
2018-06-10 06:20,50.9117383333333,-96.9825383333333,10.0,11.4,147,984.32,17.3,100,18.78,0.0,1010.39,270.0
2018-06-10 06:30,50.9117366666667,-96.98254,9.9,12.4,146,984.21,17.2,100,18.76,0.0,1010.30,270.0
2018-06-10 06:40,50.911735,-96.9825366666667,9.8,11.3,143,984.01,17.2,100,18.75,0.0,1010.09,270.0
2018-06-10 06:50,50.9117366666667,-96.982535,8.8,10.4,138,983.84,17.1,100,18.73,0.0,1009.93,270.0
2018-06-10 07:00,50.9117366666667,-96.982535,8.2,10.4,138,983.77,17.0,100,18.71,0.0,1009.85,312.1
2018-06-10 07:10,50.9117316666667,-96.9825283333333,9.5,11.1,145,983.76,17.1,100,18.69,0.0,1009.85,312.1
2018-06-10 07:20,50.911725,-96.98253,9.9,12.5,146,983.73,17.0,100,18.66,0.0,1009.82,312.1
2018-06-10 07:30,50.9117233333333,-96.9825316666667,11.6,13.2,142,983.80,17.0,100,18.64,0.0,1009.89,312.1
2018-06-10 07:40,50.9117216666667,-96.9825283333333,11.1,13.1,145,983.94,17.0,100,18.62,0.0,1010.04,312.1
2018-06-10 07:50,50.9117266666667,-96.9825283333333,10.5,12.2,146,983.96,17.0,100,18.59,0.0,1010.06,312.1
2018-06-10 08:00,50.9117266666667,-96.9825266666667,10.6,12.1,147,984.04,17.0,100,18.57,0.0,1010.14,360.0
2018-06-10 08:10,50.9117233333333,-96.9825233333333,10.4,12.1,147,984.02,16.9,100,18.55,0.0,1010.12,360.0
2018-06-10 08:20,50.9117533333333,-96.9825233333333,9.8,11.5,146,983.98,16.9,100,18.53,0.0,1010.08,360.0
2018-06-10 08:30,50.9117066666667,-96.9825233333333,10.3,11.9,142,983.97,16.8,100,18.51,0.0,1010.07,360.0
2018-06-10 08:40,50.9117283333333,-96.9825266666667,10.3,11.7,143,983.93,16.8,100,18.50,0.0,1010.04,360.0
2018-06-10 08:50,50.9117333333333,-96.98253,9.6,12.4,143,983.90,16.8,100,18.49,0.0,1010.02,360.0
2018-06-10 09:00,50.9117433333333,-96.9825383333333,8.5,9.9,147,983.84,16.8,100,18.47,0.0,1009.95,0.0
2018-06-10 09:10,50.9117416666667,-96.98253,10.1,14.2,148,983.70,16.8,100,18.45,0.0,1009.81,0.0
2018-06-10 09:20,50.91174,-96.982535,13.1,15.9,151,983.64,16.8,100,18.42,0.0,1009.75,0.0
2018-06-10 09:30,50.9117366666667,-96.9825333333333,11.5,13.7,151,983.58,16.7,100,18.38,0.0,1009.69,0.0
2018-06-10 09:40,50.9117333333333,-96.9825333333333,10.6,13.9,146,983.48,16.7,101,18.35,0.0,1009.59,0.0
2018-06-10 09:50,50.9117333333333,-96.9825316666667,10.4,12.4,145,983.53,16.8,101,18.35,0.0,1009.64,0.0
2018-06-10 10:00,50.9117333333333,-96.98253,10.2,12.4,144,983.52,16.7,101,18.35,0.0,1009.63,170.2
2018-06-10 10:10,50.9117333333333,-96.9825283333333,8.8,13.2,124,983.36,16.9,101,18.35,0.0,1009.46,170.2
2018-06-10 10:20,50.9117333333333,-96.98253,11.1,14.9,138,983.52,16.8,101,18.37,0.0,1009.63,170.2
2018-06-10 10:30,50.9117316666667,-96.98253,13.5,16.3,143,983.54,16.8,101,18.37,0.0,1009.65,170.2
2018-06-10 10:40,50.9117233333333,-96.98251,12.1,14.0,141,983.53,16.7,101,18.36,0.0,1009.65,170.2
2018-06-10 10:50,50.91172,-96.9825266666667,10.8,12.9,140,983.54,16.7,101,18.36,0.0,1009.66,170.2
2018-06-10 11:00,50.911715,-96.9825283333333,10.3,12.9,129,983.35,16.7,101,18.35,0.0,1009.46,360.0
2018-06-10 11:10,50.911735,-96.9825333333333,10.4,12.1,129,983.29,16.7,101,18.34,0.0,1009.41,360.0
2018-06-10 11:20,50.9117116666667,-96.982515,9.8,11.5,127,983.37,16.7,101,18.34,0.0,1009.48,360.0
2018-06-10 11:30,50.9117216666667,-96.9825216666667,8.5,10.5,121,983.45,16.8,101,18.34,0.0,1009.57,360.0
2018-06-10 11:40,50.9117533333333,-96.9825733333333,9.1,10.5,122,983.45,16.7,101,18.34,0.0,1009.57,360.0
2018-06-10 11:50,50.9117383333333,-96.9825283333333,8.7,10.6,111,983.28,17.3,101,18.34,0.0,1009.37,360.0
2018-06-10 12:00,50.911735,-96.9825233333333,9.0,11.5,109,983.21,17.4,101,18.35,0.0,1009.28,119.5
2018-06-10 12:10,50.91173,-96.98251,8.6,11.5,109,983.24,17.5,101,18.36,0.0,1009.31,119.5
2018-06-10 12:20,50.91172,-96.9825316666667,8.5,10.8,119,983.28,17.0,101,18.37,0.0,1009.38,119.5
2018-06-10 12:30,50.911725,-96.9825216666667,9.3,11.5,118,983.19,17.0,101,18.37,0.0,1009.28,119.5
2018-06-10 12:40,50.9117233333333,-96.9825166666667,9.1,11.9,121,983.35,17.0,101,18.36,0.0,1009.45,119.5
2018-06-10 12:50,50.9117233333333,-96.9825183333333,8.1,11.7,114,983.30,17.4,101,18.37,0.0,1009.39,119.5
2018-06-10 13:00,50.9117233333333,-96.98252,9.1,11.0,108,983.18,17.7,101,18.38,0.0,1009.24,132.1
2018-06-10 13:10,50.9117366666667,-96.9825133333333,9.9,11.6,107,983.10,17.8,101,18.40,0.0,1009.17,132.1
2018-06-10 13:20,50.911725,-96.98255,10.7,12.3,102,982.97,17.7,101,18.40,0.0,1009.03,132.1
2018-06-10 13:30,50.9117366666667,-96.98252,10.1,12.5,106,983.00,17.7,101,18.40,0.0,1009.07,132.1
2018-06-10 13:40,50.911735,-96.9825183333333,8.6,12.2,105,982.86,17.7,101,18.40,0.0,1008.89,132.1
2018-06-10 13:50,50.9117316666667,-96.9825166666667,8.4,12.6,107,982.66,17.7,101,18.41,0.0,1008.69,132.1
2018-06-10 14:00,50.91173,-96.9825166666667,11.8,14.4,108,982.49,17.9,101,18.42,0.0,1008.50,31.8
2018-06-10 14:10,50.9117316666667,-96.9825166666667,11.0,14.1,111,982.52,17.9,101,18.44,0.0,1008.55,31.8
2018-06-10 14:20,50.91173,-96.9825166666667,11.0,14.0,111,982.40,17.9,101,18.46,0.0,1008.42,31.8
2018-06-10 14:30,50.9117316666667,-96.9825166666667,10.9,14.3,121,982.43,17.7,101,18.48,0.0,1008.46,31.8
2018-06-10 14:40,50.9117316666667,-96.98252,10.5,11.8,125,982.35,17.7,101,18.50,0.0,1008.36,31.8
2018-06-10 14:50,50.91173,-96.98252,10.0,11.6,120,982.41,17.8,101,18.52,0.0,1008.40,31.8
2018-06-10 15:00,50.91173,-96.98252,11.2,13.8,121,982.37,17.9,101,18.55,0.0,1008.36,360.0
2018-06-10 15:10,50.91171,-96.9825283333333,12.2,13.7,124,982.36,18.0,101,18.58,0.0,1008.35,360.0
2018-06-10 15:20,50.91172,-96.982515,10.0,11.9,122,982.60,18.3,100,18.61,0.0,1008.59,360.0
2018-06-10 15:30,50.9117233333333,-96.9825166666667,9.1,11.5,109,982.61,18.9,100,18.65,0.0,1008.56,360.0
2018-06-10 15:40,50.911725,-96.9825166666667,7.2,9.2,107,982.68,19.1,100,18.69,0.0,1008.63,360.0
2018-06-10 15:50,50.9117266666667,-96.98252,8.6,10.2,119,982.59,18.9,100,18.72,0.0,1008.54,360.0
2018-06-10 16:00,50.9117283333333,-96.9825183333333,8.4,11.2,108,982.39,19.5,100,18.76,0.0,1008.30,360.0
2018-06-10 16:10,50.9117283333333,-96.9825183333333,9.1,11.3,110,982.21,19.5,100,18.80,0.0,1008.12,360.0
2018-06-10 16:20,50.9117466666667,-96.9825116666667,9.0,11.4,114,982.12,19.5,100,18.85,0.0,1008.04,360.0
2018-06-10 16:30,50.911745,-96.9825066666667,10.6,12.8,129,982.12,19.2,100,18.90,0.0,1008.04,360.0
2018-06-10 16:40,50.9117233333333,-96.9825,11.2,13.0,133,982.04,19.5,100,18.98,0.0,1007.95,360.0
2018-06-10 16:50,50.9117466666667,-96.9825066666667,10.8,12.3,136,982.01,19.4,100,19.06,0.0,1007.92,360.0
2018-06-10 17:00,50.9117366666667,-96.9825116666667,12.2,13.8,139,981.92,19.4,100,19.14,0.0,1007.82,360.0
2018-06-10 17:10,50.91172,-96.9824666666667,12.4,14.1,136,981.75,19.6,100,19.23,0.0,1007.63,360.0
2018-06-10 17:20,50.9117383333333,-96.9825116666667,11.4,13.1,138,981.80,19.6,100,19.29,0.0,1007.65,360.0
2018-06-10 17:30,50.9117466666667,-96.9825166666667,12.8,15.0,137,981.74,19.7,100,19.37,0.0,1007.57,360.0
2018-06-10 17:40,50.91174,-96.98252,13.3,14.6,141,981.71,20.0,97,19.45,0.0,1007.54,360.0
2018-06-10 17:50,50.9117383333333,-96.98252,12.2,14.4,138,981.59,20.2,95,19.58,0.0,1007.38,360.0
2018-06-10 18:00,50.9117366666667,-96.9825233333333,13.2,15.2,133,981.45,20.4,92,19.66,0.0,1007.23,360.0
2018-06-10 18:10,50.911745,-96.9825316666667,12.2,14.1,132,981.48,20.7,89,19.72,0.0,1007.24,360.0
2018-06-10 18:20,50.9117333333333,-96.9825233333333,11.9,13.3,132,981.49,20.8,88,19.79,0.0,1007.26,360.0
2018-06-10 18:30,50.911735,-96.9825316666667,12.2,14.4,125,981.46,20.8,88,19.85,0.0,1007.22,360.0
2018-06-10 18:40,50.9117333333333,-96.9825316666667,13.5,15.2,122,981.41,20.8,88,19.86,0.0,1007.17,360.0
2018-06-10 18:50,50.91173,-96.98253,13.1,15.1,130,981.41,20.9,87,19.86,0.0,1007.16,360.0
2018-06-10 19:00,50.91173,-96.98253,13.3,15.2,139,981.31,21.0,84,19.94,0.0,1007.06,270.0
2018-06-10 19:10,50.91173,-96.9825283333333,12.7,15.3,139,981.25,21.3,81,20.10,0.0,1006.98,270.0
2018-06-10 19:20,50.91173,-96.9825316666667,12.0,14.1,136,981.27,21.0,83,20.22,0.0,1007.00,270.0
2018-06-10 19:30,50.9117316666667,-96.9825316666667,12.8,14.2,139,981.23,21.2,81,20.30,0.0,1006.94,270.0
2018-06-10 19:40,50.9117466666667,-96.9825083333333,13.1,14.7,140,981.06,21.4,79,20.38,0.0,1006.74,270.0
2018-06-10 19:50,50.91171,-96.9825133333333,15.2,17.3,139,980.97,21.9,78,20.51,0.0,1006.63,270.0
2018-06-10 20:00,50.9117216666667,-96.9825316666667,12.3,14.8,139,981.00,21.4,83,20.61,0.0,1006.67,360.0
2018-06-10 20:10,50.9117316666667,-96.9825566666667,12.6,13.8,136,980.92,21.1,84,20.68,0.0,1006.59,360.0
2018-06-10 20:20,50.9117316666667,-96.9825,10.8,12.3,131,980.90,20.9,86,20.66,0.0,1006.58,360.0
2018-06-10 20:30,50.9117283333333,-96.9825166666667,9.6,11.1,132,980.88,20.9,88,20.59,0.0,1006.56,360.0
2018-06-10 20:40,50.91174,-96.982545,10.8,12.6,133,980.79,21.0,86,20.55,0.0,1006.47,360.0
2018-06-10 20:50,50.9117366666667,-96.9825366666667,11.0,12.0,136,980.70,21.2,86,20.57,0.0,1006.35,360.0
2018-06-10 21:00,50.9117383333333,-96.9825316666667,9.6,11.7,137,980.67,21.2,87,20.62,0.0,1006.31,350.2
2018-06-10 21:10,50.9117383333333,-96.98253,10.0,11.3,139,980.67,21.4,85,20.71,0.0,1006.32,350.2
2018-06-10 21:20,50.911725,-96.9825216666667,9.7,11.3,138,980.68,21.5,85,20.79,0.0,1006.31,350.2
2018-06-10 21:30,50.9117266666667,-96.98253,8.5,9.8,140,980.60,21.5,86,20.87,0.0,1006.22,350.2
2018-06-10 21:40,50.9117383333333,-96.9825216666667,7.8,9.2,145,980.61,21.7,85,20.97,0.0,1006.20,350.2
2018-06-10 21:50,50.9117316666667,-96.9825233333333,9.5,11.5,149,980.63,22.0,81,21.14,0.0,1006.23,350.2
2018-06-10 22:00,50.91173,-96.9825233333333,10.4,12.1,148,980.56,22.4,78,21.37,0.0,1006.15,90.0
2018-06-10 22:10,50.9117316666667,-96.9825266666667,11.9,13.3,151,980.54,22.5,76,21.57,0.0,1006.14,90.0
2018-06-10 22:20,50.9117333333333,-96.98253,10.8,12.3,145,980.53,22.2,80,21.71,0.0,1006.14,90.0
2018-06-10 22:30,50.9117316666667,-96.9825283333333,11.1,13.0,149,980.60,21.9,82,21.75,0.0,1006.22,90.0
2018-06-10 22:40,50.9117233333333,-96.9825266666667,12.0,13.4,150,980.50,22.0,82,21.82,0.0,1006.11,90.0
2018-06-10 22:50,50.9117216666667,-96.9825266666667,11.9,13.7,140,980.44,21.8,84,21.88,0.0,1006.05,90.0
2018-06-10 23:00,50.91172,-96.9825283333333,10.7,12.4,145,980.53,21.9,85,21.86,0.0,1006.13,0.0
2018-06-10 23:10,50.9117216666667,-96.98253,11.4,13.3,142,980.47,21.9,84,21.87,0.0,1006.07,0.0
2018-06-10 23:20,50.9117416666667,-96.9825416666667,12.3,13.9,141,980.34,22.1,82,21.87,0.0,1005.92,0.0
2018-06-10 23:30,50.9117333333333,-96.9825383333333,12.5,14.6,135,980.32,22.0,83,21.84,0.0,1005.90,0.0
2018-06-10 23:40,50.911735,-96.98254,12.1,15.7,126,980.36,22.4,80,21.79,0.0,1005.90,0.0
